EN

Hourly Weather Barreiro

Today, 8 March, Monday

Time Temperature Precipitation Wind Pressure Humidity
00:00 +8°C° 0 mm 5 mps 762 mmHg 86%
01:00 +8°C° 0 mm 5 mps 762 mmHg 85%
02:00 +8°C° 0 mm 5 mps 761 mmHg 84%
03:00 +8°C° 0 mm 5 mps 761 mmHg 82%
04:00 +9°C° 0 mm 5 mps 761 mmHg 79%
05:00 +9°C° 0 mm 5 mps 761 mmHg 76%
06:00 +9°C° 0 mm 5 mps 761 mmHg 75%
07:00 +10°C° 0 mm 6 mps 761 mmHg 74%
08:00 +10°C° 0 mm 6 mps 761 mmHg 72%
09:00 +11°C° 0 mm 6 mps 762 mmHg 71%
10:00 +13°C° 0 mm 6 mps 762 mmHg 69%
11:00 +13°C° 0 mm 6 mps 762 mmHg 67%
12:00 +14°C° 0 mm 6 mps 761 mmHg 67%
13:00 +14°C° 0 mm 7 mps 761 mmHg 67%
14:00 +14°C° 0 mm 7 mps 761 mmHg 67%
15:00 +13°C° 0 mm 6 mps 761 mmHg 70%
16:00 +13°C° 0 mm 6 mps 761 mmHg 73%
17:00 +12°C° 0 mm 5 mps 761 mmHg 77%
18:00 +10°C° 0 mm 5 mps 761 mmHg 80%
19:00 +9°C° 0 mm 5 mps 762 mmHg 83%
20:00 +8°C° 0 mm 4 mps 763 mmHg 86%
21:00 +9°C° 0 mm 5 mps 763 mmHg 84%
22:00 +9°C° 0 mm 5 mps 763 mmHg 82%
23:00 +10°C° 0 mm 6 mps 763 mmHg 79%

Tomorrow, 9 March, Tuesday

Time Temperature Precipitation Wind Pressure Humidity
00:00 +9°C° 0 mm 5 mps 762 mmHg 81%
01:00 +8°C° 0 mm 4 mps 762 mmHg 82%
02:00 +8°C° 0 mm 3 mps 762 mmHg 84%
03:00 +8°C° 0 mm 3 mps 762 mmHg 83%
04:00 +7°C° 0 mm 4 mps 762 mmHg 83%
05:00 +7°C° 0 mm 4 mps 763 mmHg 83%
06:00 +9°C° 0 mm 3 mps 763 mmHg 76%
07:00 +10°C° 0 mm 3 mps 763 mmHg 69%
08:00 +11°C° 0 mm 3 mps 764 mmHg 63%
09:00 +12°C° 0 mm 3 mps 764 mmHg 57%
10:00 +14°C° 0 mm 3 mps 764 mmHg 52%
11:00 +15°C° 0 mm 4 mps 764 mmHg 46%
12:00 +17°C° 0 mm 4 mps 764 mmHg 46%
13:00 +17°C° 0 mm 4 mps 763 mmHg 46%
14:00 +18°C° 0 mm 4 mps 763 mmHg 46%
15:00 +15°C° 0 mm 5 mps 763 mmHg 53%
16:00 +14°C° 0 mm 5 mps 763 mmHg 60%
17:00 +13°C° 0 mm 6 mps 763 mmHg 67%
18:00 +11°C° 0 mm 6 mps 764 mmHg 73%
19:00 +9°C° 0 mm 5 mps 765 mmHg 79%
20:00 +8°C° 0 mm 5 mps 765 mmHg 85%
21:00 +8°C° 0 mm 4 mps 766 mmHg 85%
22:00 +8°C° 0 mm 4 mps 766 mmHg 85%
23:00 +8°C° 0 mm 3 mps 766 mmHg 86%

Day after tomorrow, 10 March, Wednesday

Time Temperature Precipitation Wind Pressure Humidity
00:00 +8°C° 0 mm 3 mps 766 mmHg 86%
01:00 +8°C° 0 mm 3 mps 766 mmHg 87%
02:00 +8°C° 0 mm 2 mps 766 mmHg 87%
03:00 +8°C° 0 mm 2 mps 766 mmHg 88%
04:00 +7°C° 0 mm 3 mps 766 mmHg 88%
05:00 +7°C° 0 mm 3 mps 766 mmHg 89%
06:00 +9°C° 0 mm 2 mps 766 mmHg 84%
07:00 +10°C° 0 mm 2 mps 767 mmHg 80%
08:00 +12°C° 0 mm 2 mps 768 mmHg 75%
09:00 +14°C° 0 mm 2 mps 768 mmHg 66%
10:00 +16°C° 0 mm 2 mps 768 mmHg 57%
11:00 +18°C° 0 mm 2 mps 768 mmHg 48%
12:00 +18°C° 0 mm 2 mps 768 mmHg 48%
13:00 +18°C° 0 mm 2 mps 768 mmHg 47%
14:00 +19°C° 0 mm 3 mps 767 mmHg 47%
15:00 +18°C° 0 mm 3 mps 767 mmHg 54%
16:00 +17°C° 0 mm 3 mps 767 mmHg 62%
17:00 +16°C° 0 mm 3 mps 767 mmHg 69%
18:00 +13°C° 0 mm 3 mps 768 mmHg 74%
19:00 +12°C° 0 mm 3 mps 768 mmHg 79%
20:00 +11°C° 0 mm 3 mps 769 mmHg 84%
21:00 +12°C° 0 mm 2 mps 769 mmHg 86%
22:00 +12°C° 0 mm 2 mps 769 mmHg 87%
23:00 +12°C° 0 mm 1 mps 769 mmHg 89%

11 March, Thursday

Time Temperature Precipitation Wind Pressure Humidity
00:00 +11°C° 0 mm 1 mps 769 mmHg 90%
01:00 +11°C° 0 mm 1 mps 769 mmHg 91%
02:00 +10°C° 0 mm 0 mps 769 mmHg 91%
03:00 +10°C° 0 mm 0 mps 769 mmHg 92%
04:00 +10°C° 0 mm 0 mps 769 mmHg 92%
05:00 +10°C° 0 mm 0 mps 769 mmHg 93%
06:00 +11°C° 0 mm 0 mps 769 mmHg 89%
07:00 +12°C° 0 mm 0 mps 770 mmHg 86%
08:00 +14°C° 0 mm 0 mps 770 mmHg 83%
09:00 +16°C° 0 mm 1 mps 770 mmHg 78%
10:00 +18°C° 0 mm 1 mps 770 mmHg 73%
11:00 +18°C° 0 mm 2 mps 770 mmHg 69%
12:00 +18°C° 0 mm 2 mps 770 mmHg 68%
13:00 +18°C° 0 mm 3 mps 769 mmHg 67%
14:00 +18°C° 0 mm 3 mps 769 mmHg 65%
15:00 +17°C° 0 mm 3 mps 769 mmHg 68%
16:00 +17°C° 0 mm 3 mps 769 mmHg 70%
17:00 +16°C° 0 mm 3 mps 769 mmHg 72%
18:00 +14°C° 0 mm 3 mps 769 mmHg 76%
19:00 +14°C° 0 mm 2 mps 769 mmHg 79%
20:00 +13°C° 0 mm 2 mps 770 mmHg 83%
21:00 +13°C° 0 mm 2 mps 770 mmHg 85%
22:00 +12°C° 0 mm 2 mps 769 mmHg 87%
23:00 +12°C° 0 mm 1 mps 769 mmHg 89%

12 March, Friday

Time Temperature Precipitation Wind Pressure Humidity
00:00 +12°C° 0 mm 1 mps 769 mmHg 90%
01:00 +12°C° 0 mm 1 mps 769 mmHg 91%
02:00 +12°C° 0 mm 1 mps 768 mmHg 92%
03:00 +12°C° 0 mm 1 mps 768 mmHg 93%
04:00 +12°C° 0 mm 2 mps 768 mmHg 94%
05:00 +12°C° 0 mm 2 mps 768 mmHg 95%
06:00 +12°C° 0 mm 3 mps 769 mmHg 90%
07:00 +13°C° 0 mm 3 mps 769 mmHg 85%
08:00 +14°C° 0 mm 4 mps 769 mmHg 79%
09:00 +15°C° 0 mm 4 mps 769 mmHg 73%
10:00 +15°C° 0 mm 5 mps 769 mmHg 67%
11:00 +16°C° 0 mm 5 mps 770 mmHg 61%
12:00 +16°C° 0 mm 6 mps 769 mmHg 60%
13:00 +16°C° 0 mm 6 mps 769 mmHg 58%
14:00 +16°C° 0 mm 6 mps 768 mmHg 57%
15:00 +15°C° 0 mm 6 mps 768 mmHg 60%
16:00 +14°C° 0 mm 6 mps 768 mmHg 64%
17:00 +13°C° 0 mm 6 mps 768 mmHg 67%
18:00 +11°C° 0 mm 6 mps 769 mmHg 71%
19:00 +10°C° 0 mm 5 mps 769 mmHg 76%
20:00 +9°C° 0 mm 5 mps 769 mmHg 80%
21:00 +9°C° 0 mm 5 mps 770 mmHg 81%
22:00 +8°C° 0 mm 5 mps 770 mmHg 82%
23:00 +8°C° 0 mm 5 mps 770 mmHg 84%

13 March, Saturday

Time Temperature Precipitation Wind Pressure Humidity
00:00 +8°C° 0 mm 5 mps 770 mmHg 84%
01:00 +8°C° 0 mm 5 mps 769 mmHg 84%
02:00 +7°C° 0 mm 5 mps 769 mmHg 84%
03:00 +7°C° 0 mm 5 mps 769 mmHg 84%
04:00 +7°C° 0 mm 5 mps 769 mmHg 84%
05:00 +7°C° 0 mm 5 mps 769 mmHg 84%
06:00 +8°C° 0 mm 5 mps 769 mmHg 80%
07:00 +9°C° 0 mm 6 mps 770 mmHg 75%
08:00 +10°C° 0 mm 6 mps 770 mmHg 70%
09:00 +13°C° 0 mm 6 mps 770 mmHg 65%
10:00 +14°C° 0 mm 5 mps 770 mmHg 60%
11:00 +15°C° 0 mm 5 mps 770 mmHg 55%
12:00 +16°C° 0 mm 5 mps 770 mmHg 54%
13:00 +17°C° 0 mm 5 mps 769 mmHg 53%
14:00 +17°C° 0 mm 5 mps 769 mmHg 52%
15:00 +16°C° 0 mm 5 mps 769 mmHg 58%
16:00 +15°C° 0 mm 5 mps 768 mmHg 64%
17:00 +13°C° 0 mm 6 mps 768 mmHg 69%
18:00 +12°C° 0 mm 5 mps 769 mmHg 73%
19:00 +10°C° 0 mm 5 mps 769 mmHg 78%
20:00 +9°C° 0 mm 5 mps 770 mmHg 82%
21:00 +8°C° 0 mm 4 mps 770 mmHg 83%
22:00 +8°C° 0 mm 4 mps 770 mmHg 84%
23:00 +9°C° 0 mm 3 mps 770 mmHg 85%
Show more

We Need Your Consent

Meteoprog and our Service Providers may store and access personal data such as cookies, device identifiers or other similar technologies on your device and process such data to personalise content and ads, as well as provide social media features and to analyse the traffic.

  • Store and/or access information on your device

    Cookies, device identifiers or other information can be stored or accessed on your device for the purposes indicated above.

  • Personalised ads and content, ad and content measurement, audience insights, and products development

    Ads and content can be personalised based on a profile. More data can be added to better personalise ads and content. Ad and content performance can be measured. Insights about the audience who saw the ads and content can be derived. Such data can be used to develop or improve user’s experience, systems and software.

By clicking ‘I Agree’ you will allow the use of indicated cookies, device identifiers, web beacons or other similar technologies. Your settings can be changed in the browser on your device.

For certain purposes, legitimate interests may be relied on, rather than consent. You can read more about this in our Privacy and Cookie Policy.